x

First Landing (44064) Wave Buoy

3:10pm - Fri 17th Nov 2017 All times are EST. -5 hours from GMT.

  • Sig Wave height 1.0ft
  • Wind
    11mph, 16mph gusts
  • Air Temp 51°f
  • Sea Pressure 1021.1mb
  • First Landing
  • First Landing

More Historic Weather Station data

Upgrade to MSW Pro to gain access to the past 30 days of data for over 8000 Wavebouys and Weather Stations around the globe.

Join

Comparision Forecast

View Surf forecast
   
Fri 11/17 3:10pm 1ft  -  11 16 mph 1021.1mb - 51f
3:00pm 1.3ft 3s 11 16 mph 1021.1mb 56f 50f
2:50pm 1ft  -  13 16 mph 1020.9mb - 50f
2:40pm  -   -  11 13 mph 1020.9mb - 50f
2:30pm  -   -  11 16 mph 1021.1mb - 50f
2:20pm  -   -  11 16 mph 1021mb - 50f
2:10pm 1.6ft  -  13 16 mph 1021.2mb - 50f
2:00pm 1.6ft 3s 11 16 mph 1021.4mb 56f 49f
1:50pm 1.6ft  -  13 16 mph 1021.5mb - 49f
1:40pm  -   -  13 18 mph 1021.6mb - 49f
1:30pm  -   -  13 18 mph 1021.6mb - 49f
1:20pm  -   -  13 18 mph 1021.7mb - 49f
1:10pm 1.6ft  -  16 20 mph 1021.9mb - 49f
1:00pm 1.6ft 3s 13 16 mph 1021.9mb 56f 48f
12:50pm 1.6ft  -  13 18 mph 1022mb - 48f
12:40pm  -   -  13 18 mph 1022.2mb - 48f
12:30pm  -   -  13 20 mph 1022.3mb - 48f
12:20pm  -   -  16 20 mph 1022.3mb - 47f
12:10pm 2ft  -  13 18 mph 1022.4mb - 47f
12:00pm 2ft 3s 13 18 mph 1022.4mb 56f 47f
11:50am 2ft  -  13 18 mph 1022.4mb - 47f
11:40am  -   -  16 18 mph 1022.5mb - 47f
11:30am  -   -  16 20 mph 1022.7mb - 47f
11:20am  -   -  13 20 mph 1022.8mb - 47f
11:10am 2.5ft  -  13 20 mph 1022.9mb - 47f
11:00am 2.5ft 3s 16 22 mph 1022.9mb 56f 47f
10:50am 2.5ft  -  13 18 mph 1022.9mb - 47f
10:40am  -   -  16 22 mph 1022.9mb - 46f
10:30am  -   -  16 20 mph 1022.9mb - 47f
10:20am  -   -  16 20 mph 1022.8mb - 47f
10:10am 2.5ft  -  16 22 mph 1022.9mb - 47f
10:00am 2.5ft 4s 18 20 mph 1022.9mb 56f 47f
9:50am 2.5ft  -  18 22 mph 1022.9mb - 47f
9:40am  -   -  18 25 mph 1022.9mb - 47f
9:30am  -   -  18 22 mph 1022.8mb - 47f
9:20am  -   -  18 25 mph 1022.8mb - 47f
9:10am 3ft  -  20 25 mph 1022.6mb - 47f
9:00am 3ft 4s 18 25 mph 1022.7mb 56f 47f
8:50am 3ft  -  18 25 mph 1022.9mb - 47f
8:40am  -   -  18 25 mph 1022.8mb - 47f
8:30am  -   -  18 25 mph 1022.7mb - 47f
8:20am  -   -  20 25 mph 1022.7mb - 47f
8:10am 3ft  -  20 27 mph 1022.7mb - 47f
8:00am 3ft 4s 20 27 mph 1022.5mb 56f 47f
7:50am  -   -  22 27 mph 1022.3mb - 47f
7:40am  -   -  22 27 mph 1022.1mb - 47f
7:30am  -   -  22 29 mph 1021.9mb - 47f
7:20am  -   -  22 29 mph 1021.7mb - 47f
7:10am 3.5ft  -  25 29 mph 1021.5mb - 47f
7:00am 3.5ft 4s 25 31 mph 1021.4mb 56f 47f
6:50am 3.5ft  -  25 31 mph 1021.4mb - 47f
6:40am  -   -  25 31 mph 1021.3mb - 47f
6:30am  -   -  25 31 mph 1021.2mb - 47f
6:20am  -   -  27 31 mph 1021.1mb - 47f
6:10am 3.5ft  -  25 29 mph 1021mb - 47f
6:00am 3.5ft 4s 25 31 mph 1020.9mb 56f 47f
5:50am 3.5ft  -  25 29 mph 1020.8mb - 47f
5:40am  -   -  25 31 mph 1020.7mb - 47f
5:30am  -   -  25 31 mph 1020.8mb - 47f
5:20am  -   -  22 29 mph 1020.7mb - 47f
5:10am 3.5ft  -  25 31 mph 1020.5mb - 47f
5:00am 3.5ft 3s 25 31 mph 1020.5mb 56f 47f
4:50am 3.5ft  -  25 31 mph 1020.5mb - 47f
4:40am  -   -  25 31 mph 1020.3mb - 47f
4:30am  -   -  22 29 mph 1020.4mb - 47f
4:20am  -   -  25 31 mph 1020.3mb - 47f
4:10am 3ft  -  25 29 mph 1020.2mb - 47f
4:00am 3.5ft 3s 25 34 mph 1020.4mb 56f 47f
3:50am 3ft  -  25 29 mph 1020.3mb - 47f
3:40am  -   -  27 31 mph 1020.4mb - 47f
3:30am  -   -  25 29 mph 1020.5mb - 47f
3:20am  -   -  25 36 mph 1020.5mb - 47f
3:10am 2.5ft  -  25 31 mph 1020.5mb - 47f
3:00am 2.5ft 3s 25 29 mph 1020.5mb 57f 47f
2:50am 2.5ft  -  25 29 mph 1020.5mb - 48f
2:40am  -   -  22 27 mph 1020.6mb - 48f
2:30am  -   -  22 29 mph 1020.6mb - 48f
2:20am  -   -  22 27 mph 1020.5mb - 48f
2:10am 2.5ft  -  22 27 mph 1020.4mb - 48f
2:00am 2.5ft 3s 22 29 mph 1020.3mb 56f 48f
1:50am 2.5ft  -  22 27 mph 1020.2mb - 48f
1:40am  -   -  22 29 mph 1020mb - 48f
1:30am  -   -  25 29 mph 1019.8mb - 48f
1:20am  -   -  22 29 mph 1019.7mb - 49f
1:10am 2.5ft  -  22 29 mph 1019.5mb - 49f
1:00am 3ft 3s 22 27 mph 1019.4mb 57f 49f
12:50am 2.5ft  -  22 27 mph 1019.5mb - 49f
12:40am  -   -  25 31 mph 1019.5mb - 49f
12:30am  -   -  22 29 mph 1019.3mb - 50f
12:20am  -   -  25 29 mph 1019.2mb - 50f
12:10am 3.5ft  -  25 29 mph 1019.3mb - 50f
12:00am 3.5ft 3s 27 31 mph 1019.3mb 57f 51f
Thu 11/16 11:50pm 3.5ft  -  25 34 mph 1019mb - 51f
11:40pm  -   -  25 29 mph 1018.8mb - 52f
11:30pm  -   -  25 29 mph 1018.8mb - 52f
11:20pm  -   -  25 29 mph 1018.6mb - 52f
11:10pm 3.5ft  -  22 29 mph 1018.4mb - 53f
11:00pm 3.5ft 3s 25 31 mph 1018.4mb 57f 53f
10:50pm 3.5ft  -  25 29 mph 1018.2mb - 53f
10:40pm  -   -  25 29 mph 1018mb - 54f
10:30pm  -   -  25 31 mph 1017.9mb - 54f
10:20pm  -   -  25 31 mph 1017.7mb - 55f
10:10pm 2ft  -  25 29 mph 1017.4mb - 55f
10:00pm 2ft 3s 25 29 mph 1017.1mb 57f 55f
9:50pm 2ft  -  25 31 mph 1016.8mb - 55f
9:40pm  -   -  25 31 mph 1016.6mb - 56f
9:30pm  -   -  22 27 mph 1016.4mb - 56f
9:20pm  -   -  25 29 mph 1016.1mb - 56f
9:10pm 1.3ft  -  22 27 mph 1016mb - 57f
9:00pm 1.3ft 5s 18 29 mph 1015.9mb 56f 57f
8:50pm 1.3ft  -  9 11 mph 1015.5mb - 57f
8:40pm  -   -  9 11 mph 1015.4mb - 57f
8:30pm  -   -  9 11 mph 1015.2mb - 57f
8:20pm  -   -  9 11 mph 1015.1mb - 57f
8:10pm 1.3ft  -  7 9 mph 1015.1mb - 57f
8:00pm 1.3ft 5s 7 9 mph 1015mb 57f 57f
7:50pm 1.3ft  -  7 9 mph 1014.9mb - 57f
7:40pm  -   -  7 9 mph 1014.9mb - 58f
7:30pm  -   -  7 7 mph 1014.9mb - 59f
7:20pm  -   -  7 7 mph 1014.8mb - 59f
7:10pm 1.3ft  -  7 9 mph 1014.8mb - 59f
7:00pm 1.3ft 4s 7 9 mph 1014.7mb 57f 59f
6:50pm 1.3ft  -  9 9 mph 1014.6mb - 59f
6:40pm  -   -  9 11 mph 1014.5mb - 60f
6:30pm  -   -  11 13 mph 1014.4mb - 60f
6:20pm  -   -  11 11 mph 1014.3mb - 60f
6:10pm 1.3ft  -  9 11 mph 1014.2mb - 59f
6:00pm 1.3ft 4s 9 11 mph 1014mb 57f 59f
5:50pm 1.3ft  -  11 13 mph 1013.8mb - 60f
5:40pm  -   -  11 13 mph 1013.7mb - 60f
5:30pm  -   -  11 13 mph 1013.6mb - 60f
5:20pm  -   -  9 11 mph 1013.4mb - 60f
5:10pm 1.6ft  -  9 11 mph 1013.2mb - 60f
5:00pm 1.6ft 4s 9 11 mph 1013mb 57f 60f
4:50pm 1.6ft  -  11 13 mph 1012.9mb - 60f
4:40pm  -   -  9 13 mph 1012.9mb - 60f
4:30pm  -   -  7 9 mph 1012.9mb - 60f
4:20pm  -   -  9 9 mph 1012.8mb - 60f
4:10pm 1.3ft  -  9 11 mph 1012.8mb - 60f
4:00pm 1.3ft 4s 9 11 mph 1012.7mb 57f 60f
3:50pm 1.3ft  -  9 11 mph 1012.7mb - 60f
3:40pm  -   -  9 9 mph 1012.7mb - 60f
3:30pm  -   -  7 9 mph 1012.7mb - 60f
3:20pm  -   -  9 9 mph 1012.6mb - 61f
3:10pm 1.3ft  -  9 11 mph 1012.4mb - 60f
3:00pm 1.3ft 3s 7 9 mph 1012.4mb 57f 60f
2:50pm 1.3ft  -  9 13 mph 1012.4mb - 60f
2:40pm  -   -  9 11 mph 1012.4mb - 60f
2:30pm  -   -  9 11 mph 1012.3mb - 60f
2:20pm  -   -  9 11 mph 1012.3mb - 60f
2:10pm 1.3ft  -  9 11 mph 1012.3mb - 60f
2:00pm 1.3ft 3s 9 11 mph 1012.4mb 57f 59f
1:30pm  -   -  13 16 mph 1012.6mb - 59f
1:20pm  -   -  13 16 mph 1012.7mb - 59f
1:10pm 1ft  -  11 13 mph 1012.9mb - 58f
1:00pm 1ft 3s 9 11 mph 1012.8mb 57f 58f
12:50pm  -   -  9 11 mph 1012.8mb - 58f
12:40pm  -   -  11 13 mph 1012.9mb - 57f
12:30pm  -   -  11 13 mph 1013.1mb - 57f
12:20pm  -   -  11 13 mph 1013.3mb - 57f
12:10pm 1.3ft  -  13 13 mph 1013.3mb - 56f
12:00pm 1.3ft 3s 13 16 mph 1013.4mb 58f 56f
11:50am  -   -  13 18 mph 1013.6mb - 56f
11:40am  -   -  13 16 mph 1014mb - 55f
11:30am  -   -  13 16 mph 1014.1mb - 55f
11:20am  -   -  13 18 mph 1014.2mb - 55f
11:10am 1.6ft  -  13 18 mph 1014.3mb - 54f
11:00am 1.6ft 3s 16 18 mph 1014.5mb 57f 54f
10:50am 1.6ft  -  16 18 mph 1014.5mb - 53f
10:40am  -   -  18 20 mph 1014.7mb - 53f
10:30am  -   -  16 20 mph 1014.9mb - 53f
10:20am  -   -  18 20 mph 1015mb - 53f
10:10am 1.6ft  -  16 20 mph 1015mb - 53f
10:00am 1.6ft 4s 16 18 mph 1014.9mb 57f 52f
9:50am 1.6ft  -  16 18 mph 1015mb - 52f
9:40am  -   -  16 20 mph 1015.1mb - 52f
9:30am  -   -  18 20 mph 1015.1mb - 52f
9:20am  -   -  16 20 mph 1015.1mb - 52f
9:10am 2ft  -  16 20 mph 1015.2mb - 52f
9:00am 2ft 4s 16 20 mph 1015.2mb 57f 52f
8:50am 2ft  -  16 20 mph 1015.3mb - 53f
8:40am  -   -  16 18 mph 1015.2mb - 53f
8:30am  -   -  13 18 mph 1015.1mb - 52f
8:20am  -   -  13 16 mph 1015mb - 52f
8:10am 2.5ft  -  16 18 mph 1015mb - 52f
8:00am 2.5ft 4s 16 18 mph 1015mb 57f 52f
7:50am  -   -  16 20 mph 1014.9mb - 52f
7:40am  -   -  16 18 mph 1014.7mb - 52f
7:30am  -   -  13 18 mph 1014.7mb - 52f
7:20am  -   -  13 18 mph 1014.7mb - 52f
7:10am 2.5ft  -  13 18 mph 1014.6mb - 52f
7:00am 2.5ft 5s 16 18 mph 1014.5mb 57f 52f
6:50am 2.5ft  -  13 18 mph 1014.6mb - 52f
6:40am  -   -  11 16 mph 1014.6mb - 52f
6:30am  -   -  13 16 mph 1014.7mb - 52f
6:20am  -   -  11 16 mph 1014.7mb - 52f
6:10am 2.5ft  -  13 18 mph 1014.7mb - 52f
6:00am 2.5ft 5s 13 18 mph 1014.9mb 57f 52f
5:50am 2.5ft  -  13 16 mph 1014.9mb - 52f
5:40am  -   -  11 16 mph 1014.9mb - 52f
5:30am  -   -  11 16 mph 1014.9mb - 52f
5:20am  -   -  13 16 mph 1015mb - 52f
5:10am 3ft  -  11 18 mph 1015.1mb - 52f
5:00am 3ft 5s 11 13 mph 1015.1mb 57f 52f
4:50am 3ft  -  11 13 mph 1015.1mb - 52f
4:40am  -   -  11 13 mph 1015.1mb - 53f
4:30am  -   -  11 13 mph 1015.1mb - 52f
4:20am  -   -  11 13 mph 1015mb - 52f
4:10am 3ft  -  11 13 mph 1015mb - 52f
4:00am 3ft 4s 9 13 mph 1015mb 57f 52f
3:50am 3ft  -  13 16 mph 1015.1mb - 52f
3:40am  -   -  13 16 mph 1015.1mb - 53f
3:30am  -   -  13 16 mph 1015.3mb - 53f
3:20am  -   -  13 18 mph 1015.4mb - 52f
3:10am 2.5ft  -  16 18 mph 1015.5mb - 52f
3:00am 2.5ft 4s 16 20 mph 1015.7mb 56f 52f
2:50am 2.5ft  -  16 20 mph 1015.9mb - 52f
2:40am  -   -  16 20 mph 1015.9mb - 52f
2:30am  -   -  16 18 mph 1016mb - 52f
2:20am  -   -  16 18 mph 1016mb - 53f
2:10am 2.5ft  -  16 20 mph 1015.9mb - 53f
2:00am 2.5ft 4s 11 13 mph 1015.8mb 57f 53f
1:50am 2.5ft  -  11 13 mph 1015.8mb - 53f
1:40am  -   -  11 16 mph 1015.9mb - 53f
1:30am  -   -  13 13 mph 1015.9mb - 53f
1:20am  -   -  11 13 mph 1015.8mb - 52f
1:10am 2.5ft  -  11 13 mph 1016.1mb - 52f
1:00am 2.5ft 3s 13 18 mph 1016.3mb 57f 52f
12:50am 2.5ft  -  18 20 mph 1016.5mb - 52f
12:40am  -   -  16 20 mph 1016.5mb - 52f
12:30am  -   -  16 18 mph 1016.6mb - 52f
12:20am  -   -  13 16 mph 1016.6mb - 52f
12:10am 2.5ft  -  16 18 mph 1016.7mb - 52f
12:00am 2.5ft 4s 16 20 mph 1016.8mb 57f 52f
Wed 11/15 11:50pm 2.5ft  -  18 22 mph 1016.8mb - 52f
11:40pm  -   -  16 20 mph 1016.5mb - 52f
11:30pm  -   -  16 18 mph 1016.3mb - 53f
11:20pm  -   -  13 16 mph 1016.4mb - 53f
11:10pm 2.5ft  -  11 16 mph 1016.5mb - 53f
11:00pm 2.5ft 5s 13 16 mph 1016.7mb 57f 54f
10:50pm 2.5ft  -  13 16 mph 1016.8mb - 54f
10:40pm  -   -  9 13 mph 1016.5mb - 55f
10:30pm  -   -  7 11 mph 1016.5mb - 55f
10:20pm  -   -  4 7 mph 1016.7mb - 55f
10:10pm 2.5ft  -  7 9 mph 1016.8mb - 55f
10:00pm 2.5ft 4s 7 9 mph 1016.9mb 58f 56f
9:50pm 2.5ft  -  7 9 mph 1017.1mb - 56f
9:40pm  -   -  4 7 mph 1017.2mb - 57f
9:30pm  -   -  7 13 mph 1017.3mb - 58f
9:20pm  -   -  4 11 mph 1017.4mb - 58f
9:10pm 2.5ft  -  4 7 mph 1017.5mb - 58f
9:00pm 2.5ft 4s 4 7 mph 1017.6mb 58f 58f
8:50pm 2.5ft  -  7 9 mph 1017.6mb - 58f
8:40pm  -   -  9 11 mph 1017.5mb - 58f
8:30pm  -   -  9 11 mph 1017.5mb - 58f
8:20pm  -   -  9 11 mph 1017.5mb - 58f
8:10pm 2.5ft  -  9 11 mph 1017.6mb - 58f
8:00pm 2.5ft 4s 7 11 mph 1017.5mb 57f 57f
7:50pm 2.5ft  -  4 9 mph 1017.6mb - 57f
7:40pm  -   -  2 7 mph 1017.7mb - 56f
7:30pm  -   -  4 4 mph 1017.7mb - 56f
7:20pm  -   -  4 4 mph 1017.9mb - 56f
7:10pm 2.5ft  -  4 4 mph 1018.1mb - 56f
7:00pm 2.5ft 4s 4 7 mph 1018.2mb 57f 56f
6:50pm 2.5ft  -  4 7 mph 1018.3mb - 56f
6:40pm  -   -  7 7 mph 1018.3mb - 56f
6:30pm  -   -  7 9 mph 1018.4mb - 56f
6:20pm  -   -  7 9 mph 1018.3mb - 56f
6:10pm 3ft  -  9 11 mph 1018.4mb - 56f
6:00pm 3ft 4s 11 13 mph 1018.5mb 57f 56f
5:50pm 3ft  -  11 16 mph 1018.6mb - 56f
5:40pm  -   -  11 16 mph 1018.6mb - 56f
5:30pm  -   -  13 16 mph 1018.6mb - 56f
5:20pm  -   -  13 16 mph 1018.6mb - 56f
5:10pm 3ft  -  13 16 mph 1018.6mb - 55f
5:00pm 3ft 4s 13 16 mph 1018.5mb 57f 55f
4:50pm 3ft  -  16 18 mph 1018.5mb - 55f
4:40pm  -   -  16 18 mph 1018.6mb - 55f
4:30pm  -   -  16 18 mph 1018.6mb - 55f
4:20pm  -   -  16 18 mph 1018.6mb - 55f
4:10pm 3.5ft  -  16 18 mph 1018.6mb - 54f
4:00pm 3.5ft 4s 16 18 mph 1018.6mb 57f 54f
3:50pm 3.5ft  -  16 20 mph 1018.6mb - 54f
3:40pm  -   -  16 20 mph 1018.7mb - 54f
3:30pm  -   -  18 20 mph 1018.8mb - 54f
3:20pm  -   -  18 20 mph 1018.8mb - 54f
3:10pm 2.5ft  -  18 20 mph 1018.8mb - 54f
3:00pm 2.5ft 4s 18 22 mph 1018.8mb 57f 53f
2:50pm 2.5ft  -  18 20 mph 1018.8mb - 54f
2:40pm  -   -  18 20 mph 1018.9mb - 54f
2:30pm  -   -  18 22 mph 1019mb - 53f
2:20pm  -   -  18 22 mph 1019.1mb - 53f
2:10pm 2.5ft  -  18 22 mph 1019.2mb - 54f
2:00pm 2.5ft 4s 18 20 mph 1019.3mb 57f 54f
1:50pm  -   -  18 22 mph 1019.5mb - 54f
1:40pm  -   -  18 20 mph 1019.7mb - 54f
1:30pm  -   -  16 20 mph 1019.8mb - 53f
1:20pm  -   -  16 20 mph 1019.9mb - 54f
1:10pm 2.5ft  -  16 18 mph 1019.9mb - 54f
1:00pm 2.5ft 4s 13 18 mph 1020mb 58f 54f
12:50pm  -   -  13 16 mph 1020.1mb - 54f
12:40pm  -   -  11 13 mph 1020.2mb - 54f
12:30pm  -   -  11 13 mph 1020.4mb - 54f
12:20pm  -   -  11 13 mph 1020.6mb - 54f
12:10pm 2.5ft  -  11 13 mph 1020.8mb - 54f
12:00pm 2.5ft 4s 11 13 mph 1020.9mb 58f 54f
11:50am 2.5ft  -  11 13 mph 1021.1mb - 53f
11:40am  -   -  11 13 mph 1021.2mb - 53f
11:30am  -   -  11 13 mph 1021.3mb - 53f
11:20am  -   -  11 16 mph 1021.6mb - 53f
11:10am 2.5ft  -  11 13 mph 1021.9mb - 53f
11:00am 2.5ft 4s 11 16 mph 1022.2mb 58f 53f
10:50am 2.5ft  -  11 16 mph 1022.3mb - 52f
10:40am  -   -  13 16 mph 1022.4mb - 52f
10:30am  -   -  13 16 mph 1022.6mb - 52f
10:20am  -   -  13 16 mph 1022.7mb - 52f
10:10am 2.5ft  -  13 16 mph 1022.8mb - 51f
10:00am 2.5ft 4s 13 16 mph 1022.7mb 58f 51f
9:50am 2.5ft  -  13 16 mph 1022.9mb - 51f
9:40am  -   -  13 16 mph 1022.8mb - 51f
9:30am  -   -  13 18 mph 1022.8mb - 51f
9:20am  -   -  13 18 mph 1022.8mb - 50f
9:10am 3ft  -  16 18 mph 1022.8mb - 50f
9:00am 3ft 4s 16 18 mph 1022.8mb 57f 50f
8:50am 3ft  -  16 20 mph 1022.9mb - 50f
8:40am  -   -  16 20 mph 1022.8mb - 50f
8:30am  -   -  18 20 mph 1022.8mb - 50f
8:20am  -   -  18 22 mph 1022.8mb - 50f
8:10am 2.5ft  -  18 22 mph 1022.7mb - 50f
8:00am 2.5ft 4s 18 22 mph 1022.6mb 57f 50f
7:50am  -   -  18 22 mph 1022.5mb - 51f
7:40am  -   -  18 22 mph 1022.4mb - 51f
7:30am  -   -  18 22 mph 1022.3mb - 51f
7:00am 3ft 4s 20 25 mph 1022.3mb 57f 50f
6:50am 2.5ft  -  20 22 mph 1022.3mb - 50f
6:40am  -   -  20 22 mph 1022.3mb - 50f
6:30am  -   -  18 22 mph 1022.2mb - 50f
6:20am  -   -  18 22 mph 1022.2mb - 50f
6:10am 3ft  -  18 22 mph 1022.1mb - 50f
6:00am 3ft 4s 18 22 mph 1022.1mb 57f 50f
5:50am  -   -  18 22 mph 1022.1mb - 50f
5:40am  -   -  20 22 mph 1022.1mb - 50f
5:30am  -   -  20 22 mph 1022.1mb - 50f
5:20am  -   -  20 22 mph 1022.1mb - 50f
5:10am 3ft  -  20 22 mph 1022.1mb - 50f
5:00am 3ft 4s 20 22 mph 1022.1mb 57f 49f
4:50am  -   -  18 22 mph 1022.1mb - 49f
4:40am  -   -  20 22 mph 1022.2mb - 49f
4:30am  -   -  20 22 mph 1022.2mb - 49f
4:20am  -   -  20 22 mph 1022.3mb - 49f
4:10am 3ft  -  20 25 mph 1022.3mb - 49f
4:00am 3ft 3s 20 25 mph 1022.3mb 57f 49f
3:50am 3ft  -  20 25 mph 1022.3mb - 49f
3:40am  -   -  20 25 mph 1022.2mb - 49f
3:30am  -   -  20 25 mph 1022.2mb - 49f
3:20am  -   -  20 22 mph 1022.3mb - 48f
3:10am 3ft  -  20 25 mph 1022.4mb - 48f
3:00am 3ft 3s 20 25 mph 1022.5mb 57f 49f
2:50am 3ft  -  20 25 mph 1022.7mb - 49f
2:40am  -   -  20 25 mph 1022.9mb - 49f
2:30am  -   -  20 25 mph 1023mb - 49f
2:20am  -   -  22 27 mph 1023mb - 49f
2:10am 2.5ft  -  20 25 mph 1023.1mb - 49f
2:00am 2.5ft 3s 20 25 mph 1023.1mb 57f 49f
1:50am  -   -  20 27 mph 1023.2mb - 49f
1:40am  -   -  20 25 mph 1023.4mb - 49f
1:30am  -   -  20 25 mph 1023.5mb - 49f
1:20am  -   -  20 25 mph 1023.5mb - 49f
1:10am 2.5ft  -  20 25 mph 1023.4mb - 48f
1:00am 2.5ft 3s 20 25 mph 1023.6mb 57f 49f
12:50am 2.5ft  -  20 25 mph 1023.9mb - 49f
12:40am  -   -  20 25 mph 1023.9mb - 49f
12:30am  -   -  20 22 mph 1024.1mb - 49f
12:20am  -   -  20 22 mph 1024.2mb - 48f
12:10am 2.5ft  -  20 25 mph 1024.2mb - 49f
12:00am 2.5ft 3s 18 22 mph 1024.2mb 57f 49f
Tue 11/14 11:50pm 2.5ft  -  20 22 mph 1024.2mb - 49f
11:40pm  -   -  20 22 mph 1024.2mb - 48f
11:30pm  -   -  20 25 mph 1024.2mb - 48f
11:20pm  -   -  20 22 mph 1024.2mb - 48f
11:10pm 2.5ft  -  18 22 mph 1024.2mb - 48f
11:00pm 2.5ft 3s 20 25 mph 1024.3mb 57f 48f
10:50pm 2.5ft  -  20 25 mph 1024.4mb - 48f
10:40pm  -   -  20 22 mph 1024.6mb - 49f
10:30pm  -   -  20 25 mph 1024.6mb - 49f
10:20pm  -   -  20 25 mph 1024.7mb - 48f
10:10pm 2.5ft  -  20 25 mph 1024.7mb - 49f
10:00pm 2.5ft 3s 20 25 mph 1024.8mb 57f 49f
9:50pm 2.5ft  -  20 25 mph 1024.8mb - 49f
9:40pm  -   -  20 25 mph 1024.7mb - 49f
9:30pm  -   -  20 27 mph 1024.7mb - 49f
9:20pm  -   -  20 25 mph 1024.6mb - 49f
9:10pm 2.5ft  -  20 25 mph 1024.5mb - 49f
9:00pm 2.5ft 3s 20 25 mph 1024.5mb 58f 49f
8:50pm 2.5ft  -  22 27 mph 1024.5mb - 50f
8:40pm  -   -  22 27 mph 1024.4mb - 50f
8:30pm  -   -  22 27 mph 1024.4mb - 50f
8:20pm  -   -  22 27 mph 1024.4mb - 50f
8:10pm 2.5ft  -  22 27 mph 1024.4mb - 50f
8:00pm 2.5ft 3s 20 25 mph 1024.4mb 58f 50f
7:50pm 2.5ft  -  20 25 mph 1024.5mb - 50f
7:40pm  -   -  20 27 mph 1024.4mb - 50f
7:30pm  -   -  20 25 mph 1024.5mb - 50f
7:20pm  -   -  20 25 mph 1024.4mb - 50f
7:10pm 2.5ft  -  20 25 mph 1024.4mb - 50f
7:00pm 2.5ft 4s 20 27 mph 1024.3mb 58f 50f
6:50pm 2.5ft  -  20 25 mph 1024.3mb - 50f
6:40pm  -   -  20 25 mph 1024.3mb - 50f
6:30pm  -   -  20 25 mph 1024.3mb - 50f
6:20pm  -   -  20 25 mph 1024.3mb - 51f
6:10pm 3ft  -  20 25 mph 1024.2mb - 51f
6:00pm 3ft 4s 20 25 mph 1024.3mb 58f 50f
5:50pm 3ft  -  20 22 mph 1024.3mb - 50f
5:40pm  -   -  20 25 mph 1024.3mb - 50f
5:30pm  -   -  20 25 mph 1024.3mb - 50f
5:20pm  -   -  20 25 mph 1024.2mb - 50f
5:10pm 3ft  -  20 25 mph 1024.2mb - 50f
5:00pm 3ft 4s 20 25 mph 1024.2mb 58f 50f
4:50pm 3ft  -  20 27 mph 1024.2mb - 50f
4:40pm  -   -  20 27 mph 1024.2mb - 50f
4:30pm  -   -  22 27 mph 1024.1mb - 50f
4:20pm  -   -  22 27 mph 1024.1mb - 50f
4:10pm 3ft  -  20 27 mph 1024.1mb - 50f
4:00pm 3ft 3s 22 27 mph 1024mb 58f 50f
3:50pm 3ft  -  20 25 mph 1024mb - 50f
3:40pm  -   -  20 25 mph 1024.1mb - 50f
3:30pm  -   -  20 25 mph 1024.2mb - 50f
3:20pm  -   -  20 27 mph 1024.2mb - 50f
3:10pm 3ft  -  20 25 mph 1024.3mb - 50f